Voltar ao catálogo

CZ-6A DEB

AtivoPO
NORAD 54631·DEBRIS·🇨🇳 China

Lançado Nov 11, 2022 de Taiyuan Satellite Launch Center

Loading…

Próximas Passagens (próximas 24 horas)

TLE

AtualizadoSource: Space-Track

Época: Sep 13, 2026, 02:58 UTC

1 54631U 22151PH  26256.12410251  .00005843  00000-0  10002-2 0  9992
2 54631  98.6235 319.9755 0071936  34.3146 326.2673 14.67527210201670

Acompanhe CZ-6A DEB em tempo real com AllMySat

Download on the App Store